QPF
0.00 0.01 0.01 0.01 0.02 0.03 0.03 0.03 0.03 0.03 0.02 0.01 0.01 0.01 0.01 0.01 0.01 0.01 0.00 0.00 0.01 0.01 0.01 0.01 0.01 0.01 0.00 0.00 0.00 0.01 0.01 0.01 0.00 0.00 0.00 0.00 0.00 0.00 0.00 0.01 0.01 0.01 0.01
0.00 0.00 0.01 0.01 0.01 0.02 0.03 0.04 0.04 0.05 0.03 0.02 0.02 0.02 0.01 0.01 0.01 0.01 0.01 0.01 0.02 0.02 0.02 0.01 0.01 0.01 0.01 0.01 0.00 0.00 0.00 0.00 0.00 0.00 0.00 0.00 0.00 0.00 0.01 0.01 0.01 0.00 0.01
0.00 0.01 0.01 0.01 0.01 0.02 0.03 0.04 0.04 0.05 0.05 0.04 0.02 0.02 0.02 0.02 0.02 0.02 0.02 0.01 0.02 0.02 0.03 0.02 0.01 0.02 0.01 0.01 0.00 0.00 0.00 0.00 0.00 0.00 0.00 0.00 0.00 0.00 0.00 0.00 0.00 0.00 0.00
0.00 0.01 0.02 0.01 0.01 0.02 0.03 0.03 0.04 0.05 0.06 0.06 0.05 0.04 0.04 0.04 0.03 0.02 0.03 0.02 0.02 0.02 0.03 0.03 0.02 0.02 0.01 0.01 0.00 0.00 0.00 0.00 0.00 0.00 0.01 0.00 0.00 0.00 0.00 0.00 0.00 0.00 0.00
0.00 0.01 0.01 0.01 0.02 0.02 0.02 0.02 0.03 0.05 0.06 0.07 0.06 0.07 0.06 0.07 0.06 0.04 0.03 0.03 0.02 0.02 0.02 0.02 0.02 0.01 0.01 0.00 0.00 0.00 0.00 0.00 0.00 0.00 0.01 0.01 0.01 0.00 0.00 0.00 0.00 0.00 0.00
0.01 0.01 0.01 0.01 0.02 0.02 0.03 0.03 0.03 0.04 0.06 0.07 0.06 0.06 0.07 0.08 0.10 0.10 0.07 0.04 0.03 0.02 0.02 0.02 0.02 0.01 0.01 0.01 0.00 0.00 0.00 0.00 0.00 0.00 0.00 0.00 0.01 0.00 0.00 0.00 0.00 0.00 0.00
0.01 0.01 0.02 0.02 0.02 0.03 0.03 0.04 0.04 0.04 0.05 0.06 0.06 0.07 0.07 0.08 0.08 0.09 0.07 0.04 0.02 0.03 0.03 0.02 0.02 0.02 0.01 0.01 0.01 0.00 0.00 0.00 0.00 0.00 0.00 0.00 0.01 0.00 0.00 0.01 0.00 0.00 0.00
0.01 0.01 0.01 0.01 0.02 0.02 0.03 0.03 0.04 0.05 0.06 0.07 0.06 0.07 0.07 0.08 0.08 0.07 0.06 0.04 0.03 0.03 0.03 0.02 0.02 0.02 0.02 0.02 0.01 0.00 0.00 0.00 0.00 0.00 0.00 0.00 0.01 0.00 0.01 0.00 0.00 0.00 0.00
0.01 0.02 0.02 0.02 0.02 0.03 0.02 0.02 0.03 0.05 0.06 0.07 0.09 0.09 0.08 0.06 0.07 0.07 0.07 0.05 0.03 0.03 0.03 0.03 0.02 0.01 0.02 0.02 0.02 0.01 0.01 0.00 0.00 0.00 0.00 0.00 0.00 0.00 0.01 0.00 0.00 0.00 0.00
0.01 0.02 0.02 0.03 0.03 0.03 0.03 0.02 0.02 0.03 0.04 0.05 0.07 0.08 0.08 0.07 0.07 0.07 0.06 0.05 0.04 0.03 0.03 0.03 0.02 0.02 0.01 0.01 0.01 0.01 0.01 0.00 0.00 0.00 0.00 0.00 0.00 0.00 0.01 0.00 0.00 0.00 0.00
0.02 0.03 0.04 0.04 0.04 0.04 0.04 0.03 0.04 0.04 0.04 0.05 0.06 0.06 0.07 0.08 0.08 0.07 0.05 0.04 0.04 0.03 0.03 0.03 0.03 0.02 0.02 0.02 0.01 0.02 0.02 0.01 0.00 0.00 0.00 0.00 0.00 0.00 0.00 0.00 0.00 0.00 0.00
0.02 0.03 0.04 0.05 0.05 0.05 0.05 0.05 0.06 0.05 0.04 0.04 0.04 0.04 0.06 0.07 0.09 0.09 0.07 0.05 0.04 0.03 0.03 0.04 0.04 0.04 0.02 0.02 0.01 0.01 0.01 0.01 0.00 0.00 0.00 0.00 0.00 0.00 0.01 0.00 0.00 0.00 0.00
0.02 0.03 0.04 0.05 0.05 0.05 0.06 0.07 0.07 0.07 0.05 0.04 0.04 0.05 0.07 0.11 0.13 0.14 0.11 0.07 0.08 0.06 0.05 0.05 0.04 0.03 0.02 0.02 0.01 0.01 0.01 0.01 0.00 0.00 0.00 0.00 0.00 0.00 0.00 0.00 0.00 0.00 0.00
0.03 0.04 0.04 0.05 0.05 0.05 0.07 0.06 0.07 0.08 0.07 0.04 0.04 0.05 0.07 0.10 0.13 0.13 0.10 0.08 0.08 0.06 0.06 0.06 0.05 0.04 0.03 0.02 0.01 0.00 0.00 0.00 0.00 0.00 0.00 0.00 0.00 0.00 0.00 0.00 0.00 0.00 0.00
0.04 0.04 0.04 0.04 0.05 0.05 0.06 0.06 0.06 0.06 0.06 0.05 0.05 0.05 0.06 0.06 0.08 0.11 0.09 0.09 0.08 0.05 0.04 0.04 0.04 0.04 0.04 0.03 0.02 0.01 0.00 0.00 0.00 0.00 0.00 0.00 0.00 0.00 0.00 0.00 0.00 0.00 0.00
0.04 0.04 0.05 0.05 0.04 0.04 0.05 0.04 0.05 0.06 0.06 0.06 0.06 0.05 0.06 0.07 0.06 0.09 0.09 0.08 0.09 0.07 0.05 0.03 0.03 0.04 0.04 0.04 0.03 0.02 0.01 0.00 0.00 0.00 0.00 0.00 0.00 0.00 0.00 0.00 0.00 0.00 0.00
0.04 0.04 0.05 0.06 0.04 0.03 0.04 0.04 0.04 0.06 0.07 0.06 0.06 0.05 0.07 0.07 0.07 0.08 0.09 0.08 0.07 0.08 0.08 0.07 0.06 0.05 0.04 0.04 0.03 0.03 0.02 0.01 0.00 0.00 0.00 0.00 0.00 0.00 0.00 0.00 0.00 0.00 0.00
0.04 0.03 0.04 0.05 0.04 0.03 0.03 0.03 0.04 0.05 0.07 0.06 0.06 0.07 0.08 0.08 0.07 0.08 0.08 0.09 0.08 0.08 0.09 0.09 0.09 0.09 0.06 0.04 0.03 0.03 0.02 0.02 0.01 0.00 0.00 0.00 0.00 0.00 0.00 0.00 0.00 0.00 0.00
0.05 0.04 0.04 0.03 0.03 0.04 0.03 0.04 0.04 0.06 0.06 0.06 0.07 0.07 0.08 0.08 0.07 0.08 0.07 0.09 0.12 0.09 0.08 0.08 0.09 0.09 0.08 0.06 0.05 0.04 0.03 0.02 0.02 0.01 0.01 0.01 0.00 0.00 0.00 0.00 0.00 0.00 0.00
0.05 0.04 0.04 0.03 0.03 0.03 0.04 0.04 0.04 0.05 0.06 0.07 0.08 0.08 0.09 0.09 0.09 0.09 0.08 0.08 0.11 0.13 0.10 0.08 0.08 0.09 0.09 0.08 0.08 0.06 0.05 0.03 0.02 0.01 0.01 0.01 0.01 0.00 0.00 0.00 0.00 0.00 0.00
0.06 0.05 0.05 0.04 0.03 0.02 0.03 0.04 0.04 0.05 0.06 0.07 0.08 0.09 0.10 0.10 0.10 0.10 0.10 0.10 0.10 0.12 0.11 0.09 0.10 0.10 0.11 0.11 0.11 0.10 0.08 0.05 0.03 0.02 0.01 0.01 0.01 0.01 0.01 0.00 0.00 0.00 0.00
0.05 0.06 0.05 0.04 0.05 0.04 0.04 0.06 0.06 0.05 0.06 0.07 0.09 0.09 0.09 0.12 0.12 0.11 0.10 0.10 0.10 0.11 0.11 0.09 0.09 0.11 0.12 0.14 0.15 0.14 0.13 0.11 0.07 0.03 0.02 0.01 0.01 0.01 0.01 0.00 0.00 0.00 0.00
0.04 0.05 0.05 0.06 0.08 0.07 0.04 0.05 0.06 0.06 0.07 0.08 0.10 0.11 0.09 0.10 0.11 0.12 0.12 0.12 0.11 0.10 0.11 0.10 0.08 0.09 0.10 0.11 0.12 0.13 0.13 0.13 0.11 0.08 0.05 0.02 0.01 0.01 0.01 0.00 0.00 0.00 0.00
0.06 0.07 0.07 0.09 0.10 0.09 0.08 0.07 0.06 0.06 0.07 0.08 0.09 0.11 0.11 0.10 0.11 0.13 0.14 0.16 0.16 0.13 0.12 0.11 0.10 0.08 0.09 0.11 0.11 0.10 0.08 0.07 0.08 0.09 0.08 0.05 0.03 0.02 0.01 0.01 0.00 0.00 0.00
0.05 0.08 0.08 0.07 0.09 0.10 0.11 0.09 0.07 0.07 0.07 0.08 0.09 0.12 0.14 0.12 0.11 0.12 0.16 0.18 0.19 0.15 0.13 0.12 0.12 0.11 0.10 0.09 0.09 0.09 0.09 0.08 0.07 0.06 0.06 0.05 0.04 0.03 0.02 0.01 0.01 0.00 0.00
0.03 0.04 0.05 0.05 0.07 0.08 0.09 0.10 0.09 0.08 0.08 0.09 0.10 0.13 0.16 0.17 0.16 0.12 0.14 0.17 0.20 0.19 0.17 0.16 0.15 0.12 0.09 0.08 0.08 0.08 0.08 0.08 0.06 0.05 0.05 0.04 0.04 0.03 0.02 0.02 0.01 0.01 0.01
MSLP
1016.08 1015.64 1015.05 1014.45 1013.94 1013.58 1013.39 1013.36 1013.42 1013.52 1013.61 1013.66 1013.69 1013.72 1013.79 1013.93 1014.13 1014.39 1014.66 1014.92 1015.12 1015.25 1015.33 1015.36 1015.39 1015.43 1015.49 1015.58 1015.66 1015.73 1015.78 1015.79 1015.80 1015.81 1015.86 1015.96 1016.09 1016.26 1016.42 1016.55 1016.63 1016.65 1016.64
1016.34 1015.89 1015.32 1014.75 1014.27 1013.93 1013.74 1013.68 1013.68 1013.71 1013.73 1013.72 1013.71 1013.73 1013.81 1013.97 1014.20 1014.48 1014.76 1015.01 1015.21 1015.33 1015.39 1015.42 1015.46 1015.52 1015.60 1015.71 1015.82 1015.92 1015.98 1016.01 1016.02 1016.05 1016.10 1016.20 1016.35 1016.52 1016.68 1016.82 1016.90 1016.93 1016.92
1016.45 1016.00 1015.46 1014.94 1014.52 1014.22 1014.06 1013.99 1013.97 1013.95 1013.91 1013.86 1013.81 1013.81 1013.87 1014.02 1014.24 1014.51 1014.78 1015.00 1015.17 1015.27 1015.32 1015.36 1015.41 1015.50 1015.63 1015.78 1015.93 1016.06 1016.14 1016.19 1016.22 1016.26 1016.32 1016.43 1016.59 1016.76 1016.94 1017.09 1017.18 1017.22 1017.23
1016.42 1015.97 1015.48 1015.03 1014.67 1014.44 1014.32 1014.26 1014.24 1014.19 1014.12 1014.03 1013.95 1013.92 1013.96 1014.08 1014.27 1014.50 1014.72 1014.91 1015.04 1015.11 1015.16 1015.21 1015.30 1015.43 1015.61 1015.80 1016.00 1016.16 1016.27 1016.34 1016.38 1016.43 1016.50 1016.63 1016.80 1016.99 1017.18 1017.35 1017.46 1017.52 1017.55
1016.29 1015.86 1015.42 1015.04 1014.76 1014.59 1014.51 1014.48 1014.45 1014.40 1014.30 1014.18 1014.08 1014.02 1014.03 1014.12 1014.27 1014.45 1014.62 1014.76 1014.85 1014.91 1014.96 1015.04 1015.16 1015.34 1015.56 1015.81 1016.04 1016.22 1016.36 1016.44 1016.49 1016.54 1016.63 1016.77 1016.96 1017.17 1017.38 1017.57 1017.70 1017.79 1017.83
1016.14 1015.73 1015.33 1015.02 1014.80 1014.69 1014.65 1014.63 1014.60 1014.52 1014.40 1014.26 1014.13 1014.05 1014.04 1014.10 1014.21 1014.35 1014.48 1014.58 1014.65 1014.70 1014.77 1014.87 1015.04 1015.26 1015.53 1015.81 1016.07 1016.27 1016.41 1016.49 1016.54 1016.60 1016.70 1016.84 1017.04 1017.28 1017.51 1017.72 1017.88 1017.99 1018.06
1016.01 1015.62 1015.28 1015.01 1014.85 1014.77 1014.73 1014.71 1014.65 1014.54 1014.39 1014.22 1014.08 1013.98 1013.95 1013.99 1014.08 1014.19 1014.29 1014.37 1014.44 1014.50 1014.59 1014.73 1014.94 1015.21 1015.52 1015.82 1016.09 1016.29 1016.42 1016.50 1016.54 1016.59 1016.69 1016.84 1017.05 1017.30 1017.55 1017.79 1017.97 1018.11 1018.20
1015.97 1015.60 1015.30 1015.07 1014.93 1014.85 1014.79 1014.72 1014.61 1014.46 1014.26 1014.06 1013.89 1013.78 1013.75 1013.78 1013.85 1013.95 1014.05 1014.13 1014.20 1014.29 1014.41 1014.60 1014.85 1015.16 1015.50 1015.83 1016.10 1016.29 1016.40 1016.46 1016.48 1016.52 1016.61 1016.76 1016.98 1017.24 1017.51 1017.76 1017.97 1018.13 1018.25
1016.04 1015.70 1015.42 1015.21 1015.06 1014.95 1014.84 1014.71 1014.52 1014.29 1014.04 1013.80 1013.60 1013.48 1013.44 1013.46 1013.54 1013.63 1013.73 1013.82 1013.92 1014.04 1014.20 1014.44 1014.74 1015.09 1015.45 1015.79 1016.06 1016.24 1016.34 1016.37 1016.37 1016.40 1016.47 1016.62 1016.84 1017.11 1017.39 1017.65 1017.88 1018.06 1018.20
1016.22 1015.91 1015.65 1015.44 1015.26 1015.10 1014.91 1014.68 1014.40 1014.09 1013.77 1013.48 1013.25 1013.11 1013.06 1013.08 1013.15 1013.24 1013.34 1013.45 1013.56 1013.71 1013.92 1014.20 1014.55 1014.94 1015.33 1015.68 1015.95 1016.12 1016.20 1016.22 1016.21 1016.22 1016.29 1016.44 1016.65 1016.92 1017.21 1017.48 1017.73 1017.92 1018.09
1016.50 1016.21 1015.96 1015.73 1015.51 1015.28 1015.00 1014.67 1014.29 1013.88 1013.49 1013.15 1012.88 1012.72 1012.65 1012.66 1012.72 1012.80 1012.90 1013.01 1013.14 1013.31 1013.55 1013.87 1014.25 1014.67 1015.09 1015.45 1015.73 1015.91 1015.99 1016.00 1015.99 1016.00 1016.07 1016.21 1016.43 1016.70 1017.00 1017.28 1017.53 1017.74 1017.92
1016.84 1016.58 1016.32 1016.07 1015.80 1015.49 1015.12 1014.68 1014.21 1013.72 1013.25 1012.86 1012.55 1012.36 1012.26 1012.25 1012.29 1012.35 1012.43 1012.52 1012.65 1012.83 1013.08 1013.42 1013.83 1014.27 1014.71 1015.10 1015.40 1015.59 1015.68 1015.70 1015.70 1015.72 1015.80 1015.95 1016.18 1016.46 1016.76 1017.05 1017.30 1017.52 1017.72
1017.21 1016.96 1016.70 1016.42 1016.10 1015.71 1015.26 1014.74 1014.17 1013.61 1013.08 1012.63 1012.28 1012.05 1011.93 1011.88 1011.88 1011.92 1011.96 1012.03 1012.14 1012.30 1012.56 1012.89 1013.30 1013.76 1014.21 1014.61 1014.93 1015.14 1015.25 1015.30 1015.32 1015.36 1015.46 1015.64 1015.88 1016.18 1016.49 1016.79 1017.06 1017.28 1017.48
1017.56 1017.33 1017.07 1016.76 1016.39 1015.94 1015.41 1014.81 1014.18 1013.55 1012.96 1012.47 1012.08 1011.81 1011.65 1011.56 1011.53 1011.52 1011.53 1011.56 1011.64 1011.78 1012.00 1012.32 1012.72 1013.16 1013.61 1014.01 1014.34 1014.57 1014.71 1014.78 1014.84 1014.91 1015.04 1015.25 1015.53 1015.85 1016.19 1016.51 1016.79 1017.02 1017.22
1017.88 1017.65 1017.38 1017.05 1016.64 1016.15 1015.56 1014.91 1014.22 1013.53 1012.90 1012.35 1011.92 1011.61 1011.41 1011.28 1011.21 1011.17 1011.15 1011.15 1011.19 1011.29 1011.48 1011.76 1012.12 1012.53 1012.96 1013.34 1013.66 1013.90 1014.05 1014.15 1014.24 1014.35 1014.52 1014.76 1015.08 1015.44 1015.81 1016.17 1016.47 1016.72 1016.92
1018.14 1017.91 1017.64 1017.29 1016.85 1016.32 1015.70 1015.01 1014.27 1013.53 1012.84 1012.25 1011.77 1011.41 1011.16 1011.01 1010.92 1010.85 1010.81 1010.79 1010.81 1010.88 1011.03 1011.26 1011.57 1011.92 1012.30 1012.65 1012.94 1013.16 1013.32 1013.44 1013.54 1013.68 1013.88 1014.17 1014.52 1014.92 1015.35 1015.74 1016.09 1016.37 1016.58
1018.32 1018.10 1017.82 1017.47 1017.02 1016.48 1015.83 1015.10 1014.32 1013.52 1012.78 1012.12 1011.58 1011.17 1010.89 1010.70 1010.60 1010.53 1010.50 1010.48 1010.50 1010.56 1010.67 1010.85 1011.10 1011.39 1011.69 1011.98 1012.23 1012.42 1012.56 1012.67 1012.78 1012.93 1013.16 1013.46 1013.85 1014.30 1014.77 1015.22 1015.62 1015.95 1016.20
1018.44 1018.22 1017.94 1017.59 1017.15 1016.60 1015.94 1015.18 1014.35 1013.50 1012.69 1011.95 1011.34 1010.87 1010.54 1010.34 1010.23 1010.19 1010.18 1010.20 1010.23 1010.29 1010.39 1010.53 1010.72 1010.94 1011.17 1011.39 1011.58 1011.72 1011.83 1011.91 1012.01 1012.15 1012.37 1012.68 1013.09 1013.56 1014.07 1014.58 1015.04 1015.44 1015.74
1018.51 1018.29 1018.02 1017.68 1017.25 1016.71 1016.04 1015.26 1014.39 1013.47 1012.58 1011.76 1011.06 1010.52 1010.14 1009.91 1009.81 1009.79 1009.84 1009.91 1009.98 1010.07 1010.17 1010.29 1010.43 1010.59 1010.75 1010.91 1011.03 1011.12 1011.18 1011.23 1011.29 1011.40 1011.59 1011.87 1012.26 1012.74 1013.27 1013.82 1014.35 1014.81 1015.19
1018.55 1018.34 1018.08 1017.76 1017.35 1016.82 1016.15 1015.35 1014.44 1013.46 1012.48 1011.56 1010.77 1010.14 1009.70 1009.45 1009.35 1009.36 1009.46 1009.59 1009.72 1009.85 1009.97 1010.09 1010.20 1010.32 1010.43 1010.52 1010.60 1010.64 1010.65 1010.66 1010.67 1010.73 1010.86 1011.09 1011.43 1011.87 1012.39 1012.96 1013.52 1014.05 1014.51
1018.60 1018.39 1018.15 1017.85 1017.46 1016.94 1016.28 1015.47 1014.53 1013.49 1012.43 1011.42 1010.53 1009.82 1009.31 1009.01 1008.89 1008.93 1009.06 1009.24 1009.43 1009.61 1009.76 1009.88 1009.98 1010.08 1010.16 1010.22 1010.27 1010.28 1010.27 1010.23 1010.19 1010.18 1010.23 1010.37 1010.63 1010.99 1011.46 1012.01 1012.60 1013.17 1013.71
1018.69 1018.49 1018.25 1017.96 1017.59 1017.10 1016.45 1015.64 1014.68 1013.61 1012.49 1011.40 1010.42 1009.61 1009.03 1008.67 1008.52 1008.54 1008.69 1008.89 1009.11 1009.31 1009.48 1009.62 1009.73 1009.82 1009.89 1009.96 1010.00 1010.01 1009.99 1009.93 1009.85 1009.77 1009.73 1009.76 1009.90 1010.16 1010.54 1011.02 1011.59 1012.19 1012.78
1018.84 1018.64 1018.40 1018.12 1017.76 1017.29 1016.66 1015.87 1014.91 1013.83 1012.68 1011.53 1010.48 1009.60 1008.93 1008.50 1008.29 1008.27 1008.38 1008.57 1008.78 1008.97 1009.14 1009.27 1009.38 1009.48 1009.57 1009.65 1009.72 1009.76 1009.75 1009.69 1009.59 1009.46 1009.34 1009.26 1009.27 1009.40 1009.66 1010.05 1010.55 1011.14 1011.76
1019.07 1018.85 1018.60 1018.32 1017.96 1017.50 1016.90 1016.14 1015.22 1014.16 1013.01 1011.85 1010.77 1009.83 1009.08 1008.56 1008.27 1008.16 1008.19 1008.31 1008.46 1008.60 1008.73 1008.83 1008.92 1009.02 1009.12 1009.23 1009.34 1009.43 1009.47 1009.44 1009.34 1009.19 1009.00 1008.84 1008.73 1008.72 1008.85 1009.13 1009.55 1010.09 1010.70
1019.35 1019.11 1018.84 1018.53 1018.17 1017.72 1017.15 1016.44 1015.57 1014.57 1013.47 1012.34 1011.25 1010.28 1009.48 1008.87 1008.47 1008.24 1008.16 1008.15 1008.19 1008.23 1008.27 1008.30 1008.35 1008.42 1008.52 1008.66 1008.81 1008.95 1009.04 1009.07 1009.01 1008.86 1008.65 1008.43 1008.24 1008.13 1008.15 1008.32 1008.64 1009.11 1009.69
1019.65 1019.40 1019.09 1018.75 1018.37 1017.92 1017.38 1016.73 1015.93 1015.02 1014.00 1012.94 1011.89 1010.92 1010.08 1009.39 1008.88 1008.52 1008.28 1008.12 1007.99 1007.89 1007.80 1007.72 1007.68 1007.69 1007.76 1007.90 1008.08 1008.26 1008.42 1008.51 1008.50 1008.40 1008.21 1007.98 1007.76 1007.59 1007.53 1007.62 1007.87 1008.27 1008.79
Thickness
5760 5762 5761 5762 5762 5763 5763 5763 5762 5761 5761 5760 5759 5758 5757 5756 5755 5753 5752 5751 5750 5749 5748 5747 5746 5745 5744 5743 5742 5741 5740 5739 5738 5737 5736 5735 5735 5734 5734 5733 5733 5731 5730
5758 5759 5757 5758 5758 5758 5758 5759 5758 5758 5757 5756 5756 5755 5754 5753 5752 5751 5750 5749 5748 5747 5746 5745 5743 5742 5741 5740 5739 5738 5737 5736 5735 5734 5733 5732 5731 5731 5730 5730 5729 5728 5727
5754 5754 5753 5753 5754 5754 5754 5754 5754 5754 5753 5753 5752 5751 5751 5750 5749 5748 5747 5746 5745 5744 5743 5742 5741 5739 5738 5736 5735 5734 5733 5733 5732 5731 5731 5729 5728 5727 5727 5726 5725 5724 5723
5749 5749 5748 5748 5749 5749 5749 5749 5749 5749 5749 5749 5748 5748 5747 5747 5746 5745 5745 5744 5743 5742 5740 5739 5738 5736 5735 5733 5732 5731 5730 5730 5730 5729 5729 5727 5726 5724 5723 5722 5721 5720 5719
5743 5743 5742 5742 5743 5744 5744 5745 5745 5745 5745 5745 5744 5744 5744 5743 5743 5742 5741 5741 5739 5738 5737 5736 5735 5733 5732 5730 5729 5728 5727 5727 5727 5727 5727 5725 5723 5721 5720 5719 5717 5716 5715
5735 5736 5736 5736 5737 5738 5739 5740 5740 5740 5740 5740 5740 5740 5740 5740 5739 5739 5738 5737 5736 5735 5734 5733 5731 5730 5728 5727 5726 5725 5724 5724 5724 5724 5724 5722 5720 5718 5717 5715 5714 5713 5711
5727 5729 5729 5730 5731 5732 5733 5734 5735 5735 5736 5736 5736 5736 5736 5735 5735 5735 5734 5734 5733 5732 5731 5729 5728 5727 5725 5724 5723 5722 5721 5721 5721 5722 5721 5719 5717 5715 5714 5712 5711 5709 5708
5720 5722 5723 5724 5725 5726 5727 5728 5729 5730 5731 5731 5731 5731 5731 5731 5731 5731 5731 5730 5729 5728 5727 5726 5725 5724 5722 5721 5720 5719 5718 5718 5719 5719 5718 5716 5714 5712 5711 5709 5708 5706 5705
5712 5714 5715 5717 5718 5719 5721 5722 5723 5724 5725 5726 5726 5727 5727 5727 5727 5727 5727 5726 5725 5724 5724 5723 5722 5720 5719 5718 5717 5716 5715 5715 5716 5716 5715 5713 5711 5709 5708 5706 5705 5703 5702
5702 5705 5707 5710 5711 5713 5714 5716 5717 5718 5719 5720 5720 5721 5722 5722 5723 5722 5722 5722 5721 5721 5720 5719 5718 5717 5716 5715 5714 5713 5712 5712 5713 5713 5712 5710 5708 5706 5704 5703 5701 5700 5698
5691 5694 5698 5701 5703 5706 5707 5710 5711 5712 5714 5714 5715 5716 5716 5717 5718 5718 5718 5718 5717 5716 5715 5715 5714 5713 5712 5711 5710 5710 5709 5709 5710 5710 5709 5707 5705 5703 5701 5699 5698 5697 5695
5679 5683 5688 5691 5695 5697 5700 5702 5704 5706 5707 5709 5709 5710 5711 5712 5713 5714 5714 5713 5713 5712 5711 5710 5709 5709 5708 5707 5706 5706 5705 5706 5707 5707 5706 5704 5701 5700 5698 5696 5695 5693 5692
5669 5673 5677 5681 5685 5688 5690 5693 5696 5698 5700 5702 5704 5705 5706 5707 5708 5709 5709 5708 5707 5707 5706 5706 5705 5704 5704 5704 5703 5703 5703 5703 5704 5704 5702 5700 5698 5696 5695 5693 5691 5690 5688
5659 5663 5667 5670 5674 5678 5681 5684 5687 5690 5692 5695 5697 5699 5699 5701 5703 5704 5704 5704 5703 5703 5702 5702 5701 5701 5700 5701 5701 5700 5700 5701 5701 5701 5699 5697 5695 5693 5692 5690 5688 5687 5685
5649 5653 5657 5660 5664 5668 5671 5674 5678 5681 5684 5687 5690 5692 5693 5695 5697 5698 5699 5699 5699 5699 5699 5699 5698 5698 5697 5697 5697 5698 5697 5697 5697 5697 5696 5694 5692 5690 5688 5686 5685 5684 5682
5640 5644 5647 5651 5654 5658 5661 5664 5668 5672 5675 5678 5681 5684 5687 5689 5690 5692 5692 5694 5695 5695 5695 5695 5695 5694 5694 5694 5694 5694 5694 5693 5693 5693 5691 5690 5688 5687 5685 5683 5682 5680 5679
5630 5634 5637 5641 5644 5647 5650 5653 5658 5662 5665 5669 5672 5676 5679 5681 5683 5684 5686 5687 5689 5690 5690 5690 5690 5690 5690 5689 5689 5690 5690 5689 5689 5688 5687 5686 5684 5683 5681 5680 5678 5676 5674
5620 5623 5625 5630 5633 5636 5639 5641 5646 5651 5654 5659 5663 5666 5669 5672 5675 5676 5678 5681 5683 5683 5683 5684 5684 5683 5683 5683 5683 5684 5685 5685 5685 5684 5683 5682 5680 5679 5677 5675 5674 5672 5670
5609 5612 5614 5617 5621 5624 5627 5630 5634 5639 5643 5647 5651 5656 5659 5662 5665 5667 5669 5672 5674 5676 5677 5677 5678 5678 5677 5677 5677 5678 5679 5679 5680 5680 5679 5678 5677 5675 5673 5671 5669 5667 5665
5599 5601 5603 5606 5609 5613 5616 5619 5622 5626 5631 5635 5639 5644 5648 5651 5655 5658 5660 5663 5665 5667 5668 5669 5669 5671 5670 5670 5671 5671 5672 5673 5674 5674 5674 5673 5672 5670 5668 5666 5664 5662 5660
5588 5590 5593 5594 5597 5600 5603 5606 5609 5613 5617 5622 5626 5632 5636 5640 5644 5647 5650 5653 5656 5657 5659 5661 5661 5661 5661 5662 5660 5660 5662 5665 5666 5668 5668 5667 5666 5665 5663 5661 5659 5657 5655
5577 5579 5582 5584 5586 5589 5592 5595 5598 5601 5605 5609 5614 5619 5623 5628 5633 5637 5639 5642 5645 5648 5650 5651 5652 5652 5653 5653 5652 5649 5648 5650 5656 5660 5660 5660 5660 5659 5657 5655 5653 5651 5649
5567 5568 5571 5573 5575 5578 5581 5583 5586 5589 5593 5597 5601 5605 5611 5617 5622 5626 5629 5632 5635 5639 5640 5642 5644 5643 5643 5644 5646 5643 5640 5641 5644 5649 5652 5652 5652 5651 5650 5649 5647 5645 5643
5556 5558 5561 5562 5565 5567 5569 5571 5574 5576 5580 5585 5589 5594 5600 5605 5609 5614 5617 5621 5625 5628 5631 5633 5636 5636 5635 5634 5635 5637 5638 5638 5635 5635 5639 5642 5643 5642 5642 5641 5640 5638 5636
5548 5550 5552 5554 5556 5558 5559 5560 5561 5564 5569 5573 5577 5582 5587 5593 5597 5602 5606 5610 5614 5618 5621 5623 5624 5625 5626 5626 5626 5627 5627 5627 5629 5627 5628 5630 5631 5633 5632 5632 5631 5630 5628
5540 5542 5544 5545 5546 5548 5549 5550 5551 5554 5557 5561 5565 5569 5575 5580 5584 5589 5594 5599 5603 5607 5611 5613 5613 5614 5616 5617 5618 5618 5618 5617 5619 5619 5620 5621 5622 5624 5623 5622 5621 5620 5619